www.pogodaiklimat.ru

Погода и климат >> Архив погоды >> Австралия >> Западная Австралия >> Леинстер


ПОГОДА в Леинстере

  • Прогноз погоды в Леинстере
  • Монитор погоды в Леинстере

АРХИВ ПОГОДЫ в Леинстере

Время (UTC), дата Ветер
(напр.,м/с)
 
Видим.   Явления Облачность Т
(С)
Тd
(С)
f
(%)
Тe
(С)
Тes
(С)
Комфортность P
(гПа)
Po
(гПа)
Тmin
(С)
Tmax
(С)
R
(мм)
R24
(мм)
S
(см)
07 11.02 З 7 н/о н/о +39.8 -2.4 7 +36 +36 очень
жарко
1004.5 950.0
09 11.02 ЮЗ 8 н/о н/о +39.0 +0.4 9 +35 +35 очень
жарко
1004.3 949.8
10 11.02 ЮЗ 7 н/о н/о +37.6 +0.8 10 +34 +34 очень
жарко
1004.7 950.2
12 11.02 ЮЗ 6 н/о н/о +34.8 +3.4 14 +32 +32 жарко 1006.5 951.9
13 11.02 ЮЗ 5 н/о н/о +33.3 +2.2 14 +30 +30 жарко 1007.1 952.5 +41.3
15 11.02 Ю 6 н/о н/о +31.1 +1.4 15 +28 +28 жарко 1007.7 953.1
16 11.02 Ю 5 н/о н/о +29.8 +0.4 15 +27 +27 жарко 1008.0 953.3
18 11.02 Ю 6 н/о н/о +27.1 0.0 17 +25 +25 комфорт 1008.3 953.6
19 11.02 ЮВ 6 н/о н/о +25.9 -2.7 15 +24 +24 комфорт 1008.5 953.8
21 11.02 Ю 4 н/о н/о +23.3 -0.9 20 +22 +22 комфорт 1009.2 954.5
22 11.02 Ю 3 н/о н/о +22.5 -0.3 22 +22 +22 комфорт 1010.0 955.2
00 12.02 ЮВ 4 н/о н/о +26.4 +2.3 21 +25 +25 комфорт 1011.2 956.4
01 12.02 ЮВ 4 н/о н/о +28.2 +2.4 19 +26 +26 жарко 1011.4 956.6 +22.5
03 12.02 Ю 4 н/о н/о +31.2 -1.5 12 +28 +28 жарко 1011.0 956.2
04 12.02 Ю 4 н/о н/о +33.4 -2.3 10 +30 +30 жарко 1010.1 955.3
06 12.02 ЮВ 3 н/о н/о +34.6 -2.9 9 +31 +31 жарко 1009.0 954.3
07 12.02 Ю 5 н/о н/о +34.0 -1.9 10 +30 +30 жарко 1008.5 953.8
09 12.02 Ю 6 н/о н/о +34.3 -1.7 10 +31 +31 жарко 1008.5 953.8
10 12.02 Ю 6 н/о н/о +33.7 +0.4 12 +30 +30 жарко 1008.6 953.9
12 12.02 ЮВ 4 н/о н/о +30.8 +4.5 19 +29 +29 жарко 1010.0 955.2
13 12.02 ЮВ 4 н/о н/о +29.5 +5.6 22 +28 +28 жарко 1010.6 955.8 +36.1
15 12.02 ЮВ 4 н/о н/о +27.0 +7.5 29 +27 +27 жарко 1010.8 956.0
16 12.02 В 3 н/о н/о +26.3 +7.4 30 +26 +26 жарко 1010.7 955.9
18 12.02 В 4 н/о н/о +24.4 +6.6 32 +24 +24 комфорт 1010.5 955.7
19 12.02 ЮВ 4 н/о н/о +23.5 +6.3 33 +24 +24 комфорт 1010.5 955.7
21 12.02 В 3 н/о н/о +21.4 +6.1 37 +22 +22 комфорт 1011.2 956.4
22 12.02 В 3 н/о н/о +20.9 +7.2 41 +22 +22 комфорт 1012.2 957.3
00 13.02 В 8 н/о н/о +25.3 +7.0 31 +25 +25 комфорт 1013.4 958.4
01 13.02 В 7 н/о н/о +27.5 +6.8 27 +27 +27 жарко 1013.4 958.4 +20.8
03 13.02 СВ 6 н/о н/о +31.6 +5.9 20 +30 +30 жарко 1013.1 958.2
04 13.02 СВ 4 н/о н/о +33.0 +4.7 17 +31 +31 жарко 1012.2 957.3
06 13.02 В 4 н/о н/о +35.7 +3.0 13 +33 +33 жарко 1010.2 955.4
07 13.02 С 3 н/о н/о +36.1 +3.3 13 +33 +33 жарко 1009.5 954.8
09 13.02 СЗ 2 н/о н/о +35.5 +2.9 13 +32 +32 жарко 1008.9 954.2
10 13.02 Ю 4 н/о н/о +35.8 +2.0 12 +32 +32 жарко 1009.1 954.4
12 13.02 ЮВ 4 н/о н/о +31.9 +3.8 17 +29 +29 жарко 1009.8 955.0
13 13.02 В 4 н/о н/о +30.6 +3.6 18 +28 +28 жарко 1010.2 955.4 +37.1
15 13.02 В 4 н/о н/о +28.9 +5.7 23 +28 +28 жарко 1009.9 955.1
16 13.02 В 6 н/о н/о +28.6 +6.1 24 +27 +27 жарко 1009.5 954.8
18 13.02 В 5 н/о н/о +26.4 +4.8 25 +26 +26 жарко 1009.2 954.5
19 13.02 СВ 5 н/о 9/0
[]
+26.1 +3.4 23 +25 +25 комфорт 1009.6 954.9
21 13.02 СВ 4 н/о н/о +25.4 +2.8 23 +24 +24 комфорт 1010.0 955.2
22 13.02 В 4 н/о 1/0
[]
+24.5 +3.8 26 +24 +24 комфорт 1010.4 955.6
00 14.02 СВ 7 н/о н/о +28.3 +3.2 20 +27 +27 жарко 1011.2 956.4
01 14.02 СВ 6 н/о 5/0
[]
+30.7 +2.9 17 +28 +32 жарко 1011.9 957.0 +24.5
03 14.02 В 6 н/о н/о +34.6 +3.2 14 +32 +32 жарко 1010.5 955.7
04 14.02 СВ 7 н/о н/о +37.5 +2.1 11 +34 +34 очень
жарко
1009.3 954.6
06 14.02 С 6 н/о н/о +37.8 +3.5 12 +35 +35 очень
жарко
1007.4 952.8
07 14.02 С 5 н/о 10/0
[]
+37.2 +3.1 12 +34 +37 очень
жарко
1006.5 951.9
09 14.02 С 7 н/о н/о +35.1 +7.2 18 +33 +33 жарко 1007.4 952.8
10 14.02 С 5 н/о 8/0
[]
+34.6 +6.8 18 +33 +33 жарко 1007.3 952.7
12 14.02 С 4 н/о н/о +32.5 +8.0 22 +31 +31 жарко 1008.9 954.2
13 14.02 СВ 4 н/о 4/0
[]
+32.0 +8.3 23 +31 +31 жарко 1010.1 955.3 +38.9
15 14.02 С 3 н/о н/о +29.9 +9.9 29 +30 +30 жарко 1010.3 955.5
16 14.02 ЮВ 2 н/о 1/0
[]
+28.9 +10.1 31 +29 +29 жарко 1010.4 955.6
18 14.02 СВ 3 н/о н/о +26.4 +10.9 38 +27 +27 жарко 1010.3 955.5
19 14.02 В 3 н/о 3/0
[]
+26.6 +11.1 38 +28 +28 жарко 1010.2 955.4
21 14.02 СВ 4 н/о н/о +25.7 +10.3 38 +27 +27 жарко 1010.4 955.6
22 14.02 СВ 6 н/о 5/0
[]
+27.2 +11.3 37 +28 +28 жарко 1011.1 956.3
00 15.02 СВ 5 н/о н/о +31.8 +9.3 25 +31 +31 жарко 1012.6 957.7
01 15.02 С 7 н/о 1/0
[]
+34.5 +12.8 27 +35 +38 очень
жарко
1012.6 957.7 +25.4
03 15.02 С 5 н/о н/о +37.3 +10.6 20 +36 +36 очень
жарко
1012.0 957.1
04 15.02 С 6 н/о н/о +38.0 +8.7 17 +36 +36 очень
жарко
1011.0 956.2
06 15.02 ЮЗ 3 н/о н/о +38.4 +4.0 12 +35 +35 очень
жарко
1009.6 954.9
07 15.02 ЮЗ 6 н/о н/о +39.6 +0.9 9 +36 +36 очень
жарко
1009.0 954.3
09 15.02 ЮЗ 5 н/о н/о +39.5 +0.8 9 +36 +36 очень
жарко
1008.9 954.2
10 15.02 ЮЗ 4 н/о 1/0
[]
+39.2 -1.1 8 +35 +35 очень
жарко
1009.0 954.3
12 15.02 ЮЗ 3 н/о н/о +34.6 -0.1 11 +31 +31 жарко 1010.9 956.1
13 15.02 ЮЗ 2 н/о н/о +31.8 +2.0 15 +29 +29 жарко 1011.4 956.6 +41.6
15 15.02 ЮЗ 4 н/о н/о +31.4 +0.7 14 +28 +28 жарко 1011.3 956.5
16 15.02 ЮЗ 3 н/о н/о +29.9 +2.2 17 +28 +28 жарко 1011.1 956.3
18 15.02 ЮЗ 4 н/о н/о +28.9 +2.2 18 +27 +27 жарко 1010.6 955.8
19 15.02 Ю 4 н/о н/о +28.3 +2.5 19 +26 +26 жарко 1010.6 955.8
21 15.02 Ю 3 н/о н/о +26.1 +4.0 24 +25 +25 комфорт 1011.0 956.2
22 15.02 З 3 н/о н/о +24.8 +4.5 27 +24 +24 комфорт 1011.4 956.6
00 16.02 ЮЗ 4 н/о н/о +28.7 +4.9 22 +27 +27 жарко 1012.2 957.3
01 16.02 Ю 3 н/о н/о +31.6 +4.4 18 +29 +29 жарко 1012.3 957.4 +24.5
03 16.02 З 2 н/о н/о +36.0 +2.1 12 +33 +33 жарко 1011.4 956.6
04 16.02 СЗ 4 н/о н/о +38.3 -0.1 9 +35 +35 очень
жарко
1010.4 955.6
06 16.02 Ю 6 н/о н/о +39.5 -2.6 7 +35 +35 очень
жарко
1008.7 954.0
07 16.02 ЮЗ 4 н/о н/о +39.3 -2.8 7 +35 +35 очень
жарко
1008.0 953.3
09 16.02 З 5 н/о н/о +39.4 -2.7 7 +35 +35 очень
жарко
1007.4 952.8
10 16.02 ЮЗ 5 н/о н/о +38.8 -1.3 8 +35 +35 очень
жарко
1007.5 952.9
12 16.02 Ю 3 н/о н/о +34.8 -1.3 10 +31 +31 жарко 1008.7 954.0
13 16.02 ЮЗ 2 н/о н/о +30.8 +0.2 14 +28 +28 жарко 1009.0 954.3 +41.1
15 16.02 ЮЗ 2 н/о н/о +28.6 +1.2 17 +26 +26 жарко 1008.5 953.8
16 16.02 ЮВ 4 н/о н/о +29.7 +3.6 19 +28 +28 жарко 1008.5 953.8
18 16.02 ЮВ 6 н/о н/о +28.6 +9.3 30 +29 +29 жарко 1008.0 953.3
19 16.02 ЮВ 5 н/о н/о +27.6 +9.9 33 +28 +28 жарко 1008.3 953.6
21 16.02 ЮВ 6 н/о н/о +25.6 +10.6 39 +27 +27 жарко 1009.5 954.8
22 16.02 ЮВ 5 н/о н/о +24.4 +11.0 43 +26 +26 жарко 1010.4 955.6
00 17.02 ЮВ 7 н/о н/о +25.9 +8.8 34 +26 +26 жарко 1011.0 956.2
01 17.02 ЮВ 7 н/о н/о +27.8 +8.6 30 +28 +28 жарко 1011.0 956.2 +24.3
03 17.02 В 5 н/о н/о +31.9 +7.5 22 +31 +31 жарко 1009.9 955.1
04 17.02 ЮВ 5 н/о н/о +33.0 +6.3 19 +31 +31 жарко 1008.7 954.0
06 17.02 ЮВ 5 н/о н/о +35.5 +4.9 15 +33 +33 жарко 1007.2 952.6
07 17.02 ЮВ 5 н/о н/о +35.7 +5.1 15 +33 +33 жарко 1006.4 951.8
09 17.02 ЮВ 5 н/о н/о +36.0 +5.3 15 +33 +33 жарко 1006.1 951.5
10 17.02 Ю 7 н/о н/о +35.2 +5.6 16 +33 +33 жарко 1005.9 951.4
12 17.02 ЮВ 7 н/о н/о +31.6 +7.3 22 +30 +30 жарко 1007.4 952.8
13 17.02 ЮВ 6 н/о н/о +30.3 +7.5 24 +29 +29 жарко 1008.1 953.4 +37.8
15 17.02 ЮВ 5 н/о н/о +28.4 +9.2 30 +28 +28 жарко 1008.3 953.6
16 17.02 ЮВ 6 н/о н/о +27.5 +10.2 34 +28 +28 жарко 1008.4 953.7
18 17.02 В 5 н/о н/о +25.2 +10.6 40 +26 +26 жарко 1008.5 953.8
19 17.02 В 5 н/о н/о +24.2 +10.8 43 +25 +25 комфорт 1008.5 953.8
21 17.02 В 5 н/о н/о +22.3 +10.8 48 +24 +24 комфорт 1009.4 954.7
22 17.02 В 5 н/о н/о +21.6 +10.7 50 +23 +23 комфорт 1010.0 955.2
00 18.02 В 7 н/о н/о +23.9 +10.6 43 +25 +25 комфорт 1011.0 956.2
01 18.02 В 6 н/о н/о +25.7 +10.7 39 +27 +27 жарко 1011.0 956.2 +21.6
03 18.02 В 6 н/о н/о +30.6 +8.9 26 +30 +30 жарко 1010.4 955.6
06 18.02 ЮВ 5 н/о н/о +34.9 +5.4 16 +32 +32 жарко 1008.2 953.5
07 18.02 ЮВ 4 н/о н/о +35.8 +6.1 16 +33 +33 жарко 1007.5 952.9

 

Местоположение метеостанции Леинстер (Западная Австралия, Австралия): широта -27.85 долгота 120.70 высота над уровнем моря 498 м.

В архиве по умолчанию представлена погода в Леинстере за последнюю неделю. Архивные данные за месяц целиком и за предыдущие месяцы, начиная с января 2011 года, Вы можете получить, выбрав интересующий диапазон дат из раскрывающегося списка и нажав кнопку "Ввод!".


*Определитесь, кто Вы:
робот инопланетянин человек

Внимание! Время в таблицах - всемирное. Для получения местного времени необходимо прибавить поправку, которая равна 8 ч.

Смотрите также архив погоды в соседних городах и на ближайших метеорологических станциях:

Погода в Леоноре (Западная Австралия, Австралия) (130 км)
Погода в Лавертоне (Западная Австралия, Австралия) (188 км)
Погода в Микатарре (Западная Австралия, Австралия) (253 км)
Погода в Маунт Магнет (Западная Австралия, Австралия) (283 км)
Погода в Калгурли-Боулдере (Западная Австралия, Австралия) (334 км)
Погода в Саутерн Кросс (Западная Австралия, Австралия) (398 км)
Погода в Дауоллину (Западная Австралия, Австралия) (476 км)
Погода в Мораве (Западная Австралия, Австралия) (481 км)
Погода в Норсмане (Западная Австралия, Австралия) (496 км)
Погода в Ньюмане (Западная Австралия, Австралия) (502 км)

Пояснения к столбцам:

Ветер - указаны скорость ветра в м/с - средняя за 10 мин, порывы в срок и между сроками (в фигурных скобках) и направление, откуда дует ветер: С - северный, СВ - северо-восточный, В - восточный, ЮВ - юго-восточный, Ю - южный, ЮЗ - юго-западный, З - западный, СЗ - северо-западный.
Видимость - горизонтальная дальность видимости в метрах или километрах. При видимости от 1 до 10 км при отсутствии осадков обычно наблюдается дымка, при ухудшении видимости до 1 км и менее - туман. В сухую погоду видимость может ухудшаться дымом, пылью или мглою.
Явления - указаны атмосферные явления, наблюдавшиеся в срок или в последний час перед сроком; фигурными скобками обозначены явления, наблюдавшиеся между сроками (за 1-3 часа до срока); квадратными скобками обозначены град или гололедные отложения с указанием их диаметра в мм.
Облачность - указаны через наклонную черту общая и нижняя облачность в баллах и высота нижней границы облаков в метрах; квадратными скобками обозначены формы облаков: Ci - перистые, Cs - перисто-слоистые, Cc - перисто-кучевые, Ac - высококучевые, As - высокослоистые, Sc - слоисто-кучевые, Ns - слоисто-дождевые, Cu - кучевые, Cb - кучево-дождевые. Подробнее классификацию облаков см. в Атласе облаков (PDF).
T - Температура воздуха - температура, измеренная на высоте 2 м над землей.
Td - Температура точки росы - температура, при понижении до которой содержащийся в воздухе водяной пар достигнет насыщения.
f - Относительная влажность воздуха - влажноcть воздуха, измеренная на высоте 2 м над землей.
Te - Эффективная температура - температура, которую ощущает одетый по сезону человек в тени. Характеристика душности погоды. При расчете учитывается влияние влажности воздуха и скорости ветра на теплоощущения человека.
Tes - Эффективная температура на солнце - температура, которую ощущает человек, с поправкой на солнечный нагрев. Характеристика знойности погоды. Зависит от высоты солнца над горизонтом, облачности и скорости ветра. Ночью, в пасмурную погоду, а также при ветре 12 м/с и более поправка равна нулю.
P - Атмосферное давление - приведенное к уровню моря атмосферное давление.
Po - Атмосферное давление - измеренное на уровне метеостанции атмосферное давление.
Tmin - Минимальная температура - минимум температуры воздуха на высоте 2 м над землей.
Tmax - Максимальная температура - максимум температуры воздуха на высоте 2 м над землей.
R - Количество осадков - Количество выпавших осадков за период времени, мм. При наведении курсора мыши на число - период времени, за который выпало указанное количество осадков.
R24 - Количество осадков - Количество выпавших осадков за 24 часа, мм.
S - Снежный покров - Высота снежного покрова, см. При наведении курсора мыши на число - состояние снежного покрова и степень покрытия местности в баллах.